Regional Weather Roundup
Issued by NWS

Home | Current Version | Previous Version | Graphics & Text | Print | Product List | Glossary On
Versions: 1 2 3 4 5 6 7 8 9 10 11 12 13 14 15 16 17 18 19 20 21 22 23 24 25 26 27 28 29 30 31 32 33 34 35 36 37 38 39 40 41 42 43 44 45 46 47 48 49 50
000
ASUS43 KBIS 251102
RWRND

NORTH DAKOTA REGIONAL WEATHER ROUNDUP
NATIONAL WEATHER SERVICE BISMARCK ND
500 AM CST SAT FEB 25 2017

NOTE: "FAIR" INDICATES FEW OR NO CLOUDS BELOW 12,000 FEET WITH NO
SIGNIFICANT WEATHER AND/OR OBSTRUCTIONS TO VISIBILITY.


NDZ001>003-009>011-017-251200-
NORTHWEST NORTH DAKOTA

CITY           SKY/WX    TMP DP  RH WIND       PRES   REMARKS
WILLISTON      FAIR      19  17  92 CALM      29.94F
MINOT          MOCLDY    21  16  81 W9        29.90F WCI  11
MINOT AFB      MOCLDY    19  18  93 W15       29.90F WCI   5
$$

NDZ018>021-031>035-040>046-251200-
SOUTHWEST NORTH DAKOTA

CITY           SKY/WX    TMP DP  RH WIND       PRES   REMARKS
BISMARCK       CLOUDY    19  15  84 CALM      29.96F
DICKINSON      MOCLDY    18  13  80 W7        29.88F WCI   9
GARRISON         N/A     21  19  92 W6        29.91F WCI  13
HETTINGER ARPT CLOUDY    19  15  84 W3        29.92F
$$

NDZ004>008-012>016-024-026-027-054-251200-
NORTHEAST NORTH DAKOTA

CITY           SKY/WX    TMP DP  RH WIND       PRES   REMARKS
GRAND FORKS    CLOUDY    20  12  71 S9        29.96F WCI   9
GRND FRKS AFB  CLOUDY    20  15  81 SW6       29.95F WCI  12
DEVILS LAKE    CLOUDY    20  16  84 SW10      29.91F WCI   9
$$

NDZ022-023-025-028>030-036>039-047>053-251200-
SOUTHEAST NORTH DAKOTA

CITY           SKY/WX    TMP DP  RH WIND       PRES   REMARKS
FARGO          CLOUDY    17  14  88 S3        30.00F
JAMESTOWN      MOCLDY    17  13  84 W7        29.95F WCI   8
$$




USA.gov is the U.S. government's official web portal to all federal, state and local government web resources and services.